contact:dominique.lefevre@mio.osupytheas.fr, maurice.libes@osupytheas.fr, didier.mallarino@osupytheas.fr
Project:EMSO http://www.emso-fr.org/EMSO-France
Depth: 2436.0 m
Title:EMSO Ligure Ouest : Data MII capteur AQUADOPP
Date,Latitude,Longitude,X_East,Y_North,Z_Up,Amplitude_X,Amplitude_Y,Amplitude_Z,Batterie,SoundSpeed,Heading,Pitch,Roll,Pressure,TIS,Speed,Direction
, degrees North, degrees East, m.s-1, m.s-1,m.s-1, 1, 1, 1, Volt, m.s-1, degree, degree, degree, dbar, degree_C, m.s-1, degree
2022-10-02T00:04:03,42.805,6.029,-0.048,0.015,0.011,99.0,103.0,99.0,13.4,1505.2,316.2,-0.7,1.8,2471.11,13.28,0.05,287.4
2022-10-02T00:07:03,42.805,6.029,-0.012,0.008,-0.003,101.0,101.0,99.0,13.4,1505.2,319.1,-0.8,1.8,2471.109,13.28,0.014,303.7
2022-10-02T00:10:03,42.805,6.029,-0.032,0.039,0.006,101.0,100.0,101.0,13.4,1505.2,329.7,-0.8,1.8,2471.059,13.28,0.05,320.6
2022-10-02T00:13:03,42.805,6.029,-0.074,0.038,-0.015,100.0,102.0,100.0,13.4,1505.2,321.3,-0.8,1.8,2471.102,13.29,0.083,297.2
2022-10-02T00:16:03,42.805,6.029,-0.036,0.012,0.01,102.0,102.0,98.0,13.4,1505.2,317.2,-0.7,1.8,2471.104,13.29,0.037,288.4
2022-10-02T00:19:03,42.805,6.029,-0.04,0.024,0.028,101.0,102.0,101.0,13.4,1505.2,332.2,-0.8,1.8,2471.067,13.29,0.046,301.0
2022-10-02T00:22:03,42.805,6.029,-0.047,0.006,-0.025,101.0,101.0,99.0,13.4,1505.2,317.4,-0.8,1.8,2471.099,13.29,0.047,277.3
2022-10-02T00:25:03,42.805,6.029,-0.069,0.062,0.026,101.0,101.0,100.0,13.3,1505.2,332.1,-0.7,1.8,2471.072,13.29,0.092,311.9
2022-10-02T00:28:03,42.805,6.029,-0.021,0.021,0.005,101.0,100.0,100.0,13.4,1505.2,323.2,-0.7,1.8,2471.047,13.29,0.029,315.0
2022-10-02T00:31:03,42.805,6.029,-0.013,-0.004,-0.02,101.0,100.0,99.0,13.4,1505.2,329.1,-0.7,1.8,2471.047,13.29,0.013,252.9
2022-10-02T00:34:03,42.805,6.029,-0.047,0.012,0.0,101.0,102.0,100.0,13.4,1505.2,320.7,-0.7,1.8,2471.069,13.29,0.048,284.3
2022-10-02T00:37:03,42.805,6.029,-0.017,0.015,-0.005,100.0,101.0,100.0,13.4,1505.2,326.8,-0.8,1.8,2471.074,13.29,0.022,311.4
2022-10-02T00:40:03,42.805,6.029,-0.028,0.023,0.003,100.0,101.0,100.0,13.4,1505.2,333.7,-0.8,1.8,2471.06,13.29,0.036,309.4
2022-10-02T00:43:03,42.805,6.029,-0.035,0.019,-0.014,102.0,101.0,100.0,13.3,1505.2,318.6,-0.8,1.8,2471.112,13.29,0.039,298.5
2022-10-02T00:46:03,42.805,6.029,-0.045,0.032,0.033,101.0,99.0,101.0,13.3,1505.2,324.0,-0.7,1.8,2471.04,13.29,0.055,305.4
2022-10-02T00:49:03,42.805,6.029,-0.061,0.015,-0.025,101.0,101.0,100.0,13.4,1505.2,322.1,-0.7,1.8,2471.072,13.29,0.062,283.8
2022-10-02T00:52:03,42.805,6.029,-0.05,0.013,-0.044,101.0,101.0,102.0,13.4,1505.2,318.9,-0.7,1.8,2471.047,13.29,0.051,284.6
2022-10-02T00:55:03,42.805,6.029,-0.04,0.008,-0.03,101.0,101.0,99.0,13.4,1505.2,325.3,-0.8,1.8,2471.039,13.29,0.04,281.3
2022-10-02T00:58:03,42.805,6.029,-0.057,0.014,0.021,101.0,102.0,100.0,13.4,1505.2,328.4,-0.7,1.8,2471.071,13.29,0.058,283.8
2022-10-02T01:04:03,42.805,6.029,-0.021,0.011,-0.01,105.0,103.0,101.0,13.3,1505.2,318.6,-0.8,1.8,2471.106,13.28,0.023,297.6
2022-10-02T01:07:02,42.805,6.029,-0.015,0.014,0.015,100.0,102.0,100.0,13.3,1505.2,326.8,-0.7,1.8,2471.102,13.28,0.02,313.0
2022-10-02T01:10:03,42.805,6.029,-0.05,0.011,-0.026,100.0,101.0,102.0,13.4,1505.2,334.2,-0.8,1.8,2471.086,13.28,0.051,282.4
2022-10-02T01:13:03,42.805,6.029,-0.042,0.009,-0.016,101.0,102.0,99.0,13.3,1505.2,323.1,-0.8,1.8,2471.057,13.29,0.042,282.1
2022-10-02T01:16:03,42.805,6.029,-0.055,0.024,-0.002,100.0,102.0,99.0,13.4,1505.2,333.1,-0.8,1.8,2471.073,13.29,0.06,293.6
2022-10-02T01:19:03,42.805,6.029,-0.054,0.0,-0.044,99.0,101.0,100.0,13.4,1505.2,325.7,-0.8,1.8,2471.032,13.29,0.053,270.0
2022-10-02T01:22:03,42.805,6.029,-0.043,0.02,-0.008,99.0,101.0,101.0,13.4,1505.2,331.5,-0.8,1.8,2471.034,13.29,0.047,294.9
2022-10-02T01:25:03,42.805,6.029,-0.036,0.023,0.013,101.0,101.0,100.0,13.4,1505.2,322.5,-0.7,1.8,2471.047,13.29,0.042,302.6
2022-10-02T01:28:03,42.805,6.029,-0.012,0.016,0.016,101.0,101.0,99.0,13.4,1505.2,324.8,-0.8,1.8,2471.049,13.29,0.02,323.1
2022-10-02T01:31:03,42.805,6.029,-0.019,0.015,0.019,100.0,101.0,100.0,13.4,1505.2,317.7,-0.8,1.8,2471.039,13.29,0.024,308.3
2022-10-02T01:34:03,42.805,6.029,-0.024,-0.004,-0.021,101.0,100.0,101.0,13.4,1505.2,318.2,-0.8,1.8,2471.073,13.29,0.024,260.5
2022-10-02T01:37:03,42.805,6.029,-0.04,0.027,-0.012,101.0,101.0,100.0,13.4,1505.2,325.9,-0.7,1.8,2471.039,13.29,0.048,304.0
2022-10-02T01:40:03,42.805,6.029,-0.046,0.032,0.049,100.0,101.0,100.0,13.4,1505.2,324.1,-0.8,1.8,2471.043,13.29,0.056,304.8
2022-10-02T01:43:03,42.805,6.029,-0.029,0.025,-0.022,100.0,102.0,100.0,13.4,1505.2,327.0,-0.8,1.8,2471.003,13.29,0.038,310.8
2022-10-02T01:46:03,42.805,6.029,-0.04,-0.007,-0.006,101.0,100.0,100.0,13.3,1505.2,318.6,-0.8,1.8,2471.034,13.29,0.04,260.1
2022-10-02T01:49:03,42.805,6.029,-0.043,0.002,-0.029,101.0,101.0,99.0,13.3,1505.2,318.3,-0.8,1.8,2471.02,13.29,0.043,272.7
2022-10-02T01:52:03,42.805,6.029,-0.06,0.016,-0.007,101.0,101.0,100.0,13.3,1505.2,317.8,-0.7,1.8,2471.018,13.29,0.062,284.9
2022-10-02T01:55:03,42.805,6.029,-0.02,0.003,-0.018,100.0,101.0,99.0,13.4,1505.2,324.0,-0.8,1.8,2471.027,13.29,0.02,278.5
2022-10-02T01:58:03,42.805,6.029,-0.053,0.031,0.005,100.0,102.0,100.0,13.3,1505.2,318.5,-0.7,1.8,2471.019,13.29,0.061,300.3
2022-10-02T02:04:03,42.805,6.029,-0.02,0.0,0.003,101.0,102.0,100.0,13.3,1505.2,321.6,-0.7,1.8,2471.065,13.28,0.02,270.0
2022-10-02T02:07:03,42.805,6.029,-0.033,0.022,-0.006,102.0,102.0,99.0,13.4,1505.2,329.2,-0.8,1.8,2471.053,13.28,0.039,303.7
2022-10-02T02:10:03,42.805,6.029,-0.03,-0.007,-0.028,103.0,101.0,99.0,13.4,1505.2,327.4,-0.8,1.8,2471.035,13.29,0.03,256.9
2022-10-02T02:13:03,42.805,6.029,-0.023,0.009,-0.004,101.0,101.0,100.0,13.4,1505.2,328.5,-0.7,1.8,2471.056,13.29,0.024,291.4
2022-10-02T02:16:03,42.805,6.029,-0.039,0.048,0.006,101.0,101.0,100.0,13.3,1505.2,325.1,-0.8,1.8,2471.033,13.29,0.061,320.9
2022-10-02T02:19:03,42.805,6.029,-0.038,0.012,-0.006,101.0,101.0,100.0,13.3,1505.2,328.1,-0.8,1.8,2471.034,13.29,0.039,287.5
2022-10-02T02:22:03,42.805,6.029,-0.036,-0.014,-0.05,101.0,102.0,99.0,13.4,1505.2,318.2,-0.8,1.8,2471.029,13.29,0.038,248.8
2022-10-02T02:25:03,42.805,6.029,-0.031,0.014,-0.002,101.0,102.0,101.0,13.3,1505.2,317.9,-0.8,1.8,2471.023,13.29,0.034,294.3
2022-10-02T02:28:03,42.805,6.029,-0.019,0.013,-0.008,99.0,101.0,100.0,13.4,1505.2,334.6,-0.8,1.8,2471.006,13.29,0.023,304.4
2022-10-02T02:31:03,42.805,6.029,-0.039,0.014,0.014,102.0,102.0,99.0,13.3,1505.2,321.8,-0.8,1.8,2471.017,13.29,0.041,289.7
2022-10-02T02:34:03,42.805,6.029,-0.053,0.002,-0.017,102.0,101.0,99.0,13.4,1505.2,327.2,-0.7,1.8,2471.012,13.29,0.053,272.2
2022-10-02T02:37:03,42.805,6.029,-0.02,0.018,0.003,102.0,101.0,100.0,13.4,1505.2,327.9,-0.7,1.8,2471.003,13.29,0.026,312.0
2022-10-02T02:40:03,42.805,6.029,-0.042,0.017,-0.009,102.0,101.0,98.0,13.3,1505.2,325.1,-0.7,1.8,2470.982,13.29,0.045,292.0
2022-10-02T02:43:03,42.805,6.029,-0.05,0.003,-0.019,101.0,101.0,99.0,13.4,1505.2,325.1,-0.7,1.8,2471.006,13.29,0.05,273.4
2022-10-02T02:46:03,42.805,6.029,-0.031,0.028,0.006,101.0,101.0,99.0,13.3,1505.2,326.3,-0.7,1.8,2470.993,13.29,0.041,312.1
2022-10-02T02:49:03,42.805,6.029,-0.036,0.031,-0.003,100.0,102.0,99.0,13.3,1505.2,330.2,-0.7,1.8,2471.001,13.29,0.047,310.7
2022-10-02T02:52:03,42.805,6.029,-0.04,-0.004,0.007,101.0,101.0,100.0,13.4,1505.2,330.6,-0.8,1.8,2471.006,13.29,0.04,264.3
2022-10-02T02:55:03,42.805,6.029,-0.026,0.019,0.015,100.0,102.0,100.0,13.4,1505.2,322.6,-0.7,1.8,2470.997,13.29,0.032,306.2
2022-10-02T02:58:03,42.805,6.029,-0.052,0.031,-0.015,101.0,100.0,100.0,13.3,1505.2,329.1,-0.7,1.8,2470.991,13.29,0.06,300.8
2022-10-02T03:04:03,42.805,6.029,-0.03,0.019,-0.025,102.0,100.0,100.0,13.4,1505.2,322.6,-0.7,1.8,2471.036,13.28,0.035,302.3
2022-10-02T03:07:03,42.805,6.029,-0.058,0.018,-0.004,102.0,101.0,100.0,13.3,1505.2,331.2,-0.7,1.8,2471.027,13.28,0.06,287.2
2022-10-02T03:10:03,42.805,6.029,-0.045,0.014,0.009,100.0,103.0,101.0,13.4,1505.2,322.8,-0.8,1.8,2471.007,13.28,0.047,287.3
2022-10-02T03:13:03,42.805,6.029,-0.047,0.005,0.001,101.0,101.0,100.0,13.3,1505.2,316.7,-0.8,1.8,2471.042,13.29,0.047,276.1
2022-10-02T03:16:03,42.805,6.029,-0.044,0.025,0.006,101.0,101.0,100.0,13.4,1505.2,330.3,-0.7,1.8,2471.02,13.29,0.05,299.6
2022-10-02T03:19:03,42.805,6.029,-0.021,0.014,-0.034,101.0,101.0,100.0,13.4,1505.2,319.0,-0.7,1.8,2471.016,13.29,0.025,303.7
2022-10-02T03:22:03,42.805,6.029,-0.037,0.021,-0.027,101.0,101.0,100.0,13.3,1505.2,334.0,-0.8,1.8,2470.992,13.29,0.042,299.6
2022-10-02T03:25:03,42.805,6.029,-0.062,0.059,0.035,102.0,99.0,100.0,13.4,1505.2,330.5,-0.7,1.8,2470.978,13.29,0.085,313.6
2022-10-02T03:28:03,42.805,6.029,-0.032,0.033,-0.011,101.0,101.0,101.0,13.4,1505.2,329.3,-0.7,1.8,2470.97,13.29,0.045,315.9
2022-10-02T03:31:03,42.805,6.029,-0.044,0.015,-0.029,102.0,101.0,99.0,13.4,1505.2,326.3,-0.7,1.8,2471.016,13.29,0.046,288.8
2022-10-02T03:34:03,42.805,6.029,-0.035,0.021,-0.029,102.0,101.0,99.0,13.4,1505.2,316.6,-0.7,1.8,2471.003,13.29,0.04,301.0
2022-10-02T03:37:03,42.805,6.029,-0.053,0.029,-0.001,100.0,102.0,100.0,13.4,1505.2,333.1,-0.7,1.8,2470.997,13.29,0.06,298.7
2022-10-02T03:40:03,42.805,6.029,-0.055,0.035,0.004,101.0,102.0,100.0,13.3,1505.2,328.2,-0.7,1.8,2471.006,13.29,0.065,302.5
2022-10-02T03:43:03,42.805,6.029,-0.043,0.027,0.008,99.0,102.0,101.0,13.4,1505.2,326.8,-0.7,1.8,2470.966,13.29,0.05,302.1
2022-10-02T03:46:03,42.805,6.029,-0.037,0.023,0.004,101.0,103.0,100.0,13.4,1505.2,317.1,-0.8,1.8,2471.006,13.29,0.043,301.9
2022-10-02T03:49:03,42.805,6.029,-0.036,0.013,0.004,101.0,100.0,101.0,13.4,1505.2,325.3,-0.8,1.8,2470.953,13.29,0.038,289.9
2022-10-02T03:52:03,42.805,6.029,-0.054,0.019,-0.016,100.0,103.0,100.0,13.4,1505.2,331.9,-0.8,1.9,2471.033,13.29,0.057,289.4
2022-10-02T03:55:03,42.805,6.029,-0.059,0.019,-0.006,101.0,103.0,99.0,13.3,1505.2,320.3,-0.7,1.8,2471.016,13.29,0.061,287.8
2022-10-02T03:58:03,42.805,6.029,-0.027,0.01,0.013,100.0,102.0,100.0,13.4,1505.2,322.7,-0.7,1.8,2470.994,13.29,0.028,290.3
2022-10-02T04:04:03,42.805,6.029,-0.017,0.006,0.015,101.0,101.0,100.0,13.3,1505.2,326.4,-0.8,1.9,2471.01,13.28,0.018,289.4
2022-10-02T04:07:03,42.805,6.029,-0.069,0.041,0.012,102.0,101.0,100.0,13.3,1505.2,323.6,-0.8,1.9,2471.021,13.28,0.08,300.7
2022-10-02T04:10:03,42.805,6.029,-0.043,0.031,0.014,100.0,102.0,100.0,13.4,1505.2,320.1,-0.8,1.8,2470.998,13.28,0.053,305.8
2022-10-02T04:13:03,42.805,6.029,-0.03,0.005,0.0,101.0,102.0,100.0,13.4,1505.2,321.8,-0.7,1.8,2471.017,13.29,0.03,279.5
2022-10-02T04:16:03,42.805,6.029,-0.014,0.003,-0.029,102.0,101.0,99.0,13.3,1505.2,327.5,-0.8,1.8,2470.967,13.29,0.014,282.1
2022-10-02T04:19:03,42.805,6.029,-0.053,0.015,-0.012,102.0,102.0,100.0,13.3,1505.2,332.1,-0.7,1.8,2470.967,13.29,0.055,285.8
2022-10-02T04:22:03,42.805,6.029,-0.053,0.053,0.035,103.0,102.0,99.0,13.3,1505.2,323.3,-0.8,1.8,2470.992,13.29,0.074,315.0
2022-10-02T04:25:03,42.805,6.029,-0.064,0.019,-0.032,102.0,100.0,100.0,13.4,1505.2,322.5,-0.8,1.8,2470.996,13.29,0.066,286.5
2022-10-02T04:28:03,42.805,6.029,-0.031,0.0,-0.02,102.0,102.0,98.0,13.4,1505.2,320.2,-0.8,1.8,2470.961,13.29,0.03,270.0
2022-10-02T04:31:03,42.805,6.029,-0.051,0.017,-0.003,101.0,101.0,100.0,13.4,1505.2,320.8,-0.7,1.8,2470.991,13.29,0.053,288.4
2022-10-02T04:34:03,42.805,6.029,-0.05,0.022,-0.021,102.0,100.0,100.0,13.4,1505.2,321.8,-0.8,1.8,2470.979,13.29,0.054,293.7
2022-10-02T04:37:03,42.805,6.029,-0.022,0.016,0.025,100.0,103.0,99.0,13.3,1505.2,323.2,-0.8,1.8,2470.917,13.29,0.027,306.0
2022-10-02T04:40:03,42.805,6.029,-0.05,0.052,0.039,102.0,102.0,100.0,13.3,1505.2,334.0,-0.7,1.8,2470.964,13.29,0.072,316.1
2022-10-02T04:43:03,42.805,6.029,-0.019,0.0,0.009,102.0,102.0,100.0,13.3,1505.2,322.0,-0.8,1.8,2470.965,13.29,0.019,270.0
2022-10-02T04:46:03,42.805,6.029,-0.028,0.014,0.012,101.0,101.0,100.0,13.4,1505.2,323.9,-0.8,1.8,2470.951,13.29,0.031,296.6
2022-10-02T04:49:03,42.805,6.029,-0.03,-0.001,-0.001,102.0,102.0,99.0,13.4,1505.2,321.9,-0.7,1.8,2470.951,13.29,0.03,268.1
2022-10-02T04:52:03,42.805,6.029,-0.074,0.013,-0.031,101.0,102.0,101.0,13.3,1505.2,324.9,-0.8,1.9,2470.951,13.29,0.075,280.0
2022-10-02T04:55:03,42.805,6.029,-0.038,0.004,-0.007,101.0,100.0,100.0,13.4,1505.2,325.1,-0.8,1.8,2470.949,13.29,0.038,276.0
2022-10-02T04:58:03,42.805,6.029,-0.041,0.02,-0.031,102.0,100.0,99.0,13.3,1505.2,328.0,-0.8,1.8,2470.956,13.29,0.045,296.0
2022-10-02T05:04:03,42.805,6.029,-0.036,0.011,0.03,102.0,102.0,100.0,13.4,1505.2,318.6,-0.8,1.8,2470.997,13.28,0.037,287.0
2022-10-02T05:07:03,42.805,6.029,-0.038,0.036,0.014,102.0,102.0,101.0,13.4,1505.2,317.8,-0.8,1.8,2471.026,13.28,0.052,313.5
2022-10-02T05:10:03,42.805,6.029,-0.022,0.011,-0.022,101.0,102.0,100.0,13.4,1505.2,317.0,-0.7,1.8,2471.0,13.28,0.024,296.6
2022-10-02T05:13:03,42.805,6.029,-0.047,0.02,0.014,101.0,103.0,99.0,13.4,1505.2,320.2,-0.8,1.8,2470.975,13.29,0.051,293.0
2022-10-02T05:16:03,42.805,6.029,-0.042,0.017,-0.014,102.0,101.0,99.0,13.4,1505.2,326.3,-0.8,1.8,2470.957,13.29,0.045,292.0
2022-10-02T05:19:03,42.805,6.029,-0.07,0.037,0.006,100.0,101.0,100.0,13.4,1505.2,322.7,-0.7,1.8,2470.972,13.29,0.079,297.9
2022-10-02T05:22:03,42.805,6.029,-0.041,0.016,0.018,101.0,102.0,100.0,13.4,1505.2,317.8,-0.7,1.8,2470.985,13.29,0.044,291.3
2022-10-02T05:25:03,42.805,6.029,-0.046,0.03,-0.001,101.0,102.0,100.0,13.4,1505.2,321.6,-0.8,1.8,2470.963,13.29,0.054,303.1
2022-10-02T05:28:03,42.805,6.029,-0.038,0.012,-0.029,100.0,101.0,101.0,13.4,1505.2,324.3,-0.8,1.8,2470.97,13.29,0.039,287.5
2022-10-02T05:31:03,42.805,6.029,-0.045,0.021,-0.017,101.0,100.0,100.0,13.4,1505.2,327.6,-0.8,1.8,2470.973,13.29,0.049,295.0
2022-10-02T05:34:03,42.805,6.029,-0.044,0.024,0.012,103.0,100.0,99.0,13.4,1505.2,322.0,-0.8,1.8,2470.946,13.29,0.05,298.6
2022-10-02T05:37:03,42.805,6.029,-0.05,0.041,-0.003,102.0,102.0,99.0,13.4,1505.2,325.9,-0.7,1.9,2470.975,13.29,0.064,309.3
2022-10-02T05:40:03,42.805,6.029,-0.041,0.011,-0.04,102.0,100.0,100.0,13.4,1505.2,318.7,-0.8,1.8,2470.933,13.29,0.042,285.0
2022-10-02T05:43:03,42.805,6.029,-0.042,0.013,-0.034,101.0,101.0,100.0,13.3,1505.2,328.2,-0.8,1.8,2470.977,13.29,0.043,287.2
2022-10-02T05:46:03,42.805,6.029,-0.042,0.011,-0.004,102.0,100.0,101.0,13.4,1505.2,325.2,-0.8,1.8,2470.933,13.29,0.043,284.7
2022-10-02T05:49:03,42.805,6.029,-0.033,0.022,-0.012,102.0,101.0,100.0,13.4,1505.2,330.8,-0.8,1.8,2470.954,13.29,0.039,303.7
2022-10-02T05:52:03,42.805,6.029,-0.044,0.027,-0.003,104.0,103.0,100.0,13.4,1505.2,319.9,-0.8,1.8,2470.974,13.29,0.051,301.5
2022-10-02T05:55:03,42.805,6.029,-0.047,0.023,0.0,102.0,101.0,101.0,13.3,1505.2,320.5,-0.8,1.8,2470.965,13.29,0.052,296.1
2022-10-02T05:58:03,42.805,6.029,-0.061,0.035,-0.021,103.0,103.0,101.0,13.3,1505.2,329.7,-0.7,1.8,2470.993,13.29,0.07,299.8
2022-10-02T06:01:03,42.805,6.029,-0.026,0.046,0.05,102.0,101.0,100.0,13.4,1505.2,327.0,-0.8,1.8,2470.938,13.29,0.052,330.5
2022-10-02T06:04:03,42.805,6.029,-0.063,0.023,-0.021,101.0,102.0,100.0,13.4,1505.2,331.2,-0.8,1.8,2470.952,13.29,0.067,290.1
2022-10-02T06:07:03,42.805,6.029,-0.006,0.024,-0.004,100.0,101.0,100.0,13.3,1505.2,330.9,-0.7,1.8,2470.914,13.29,0.024,346.0
2022-10-02T06:10:03,42.805,6.029,-0.044,0.004,0.0,100.0,101.0,101.0,13.4,1505.2,333.4,-0.8,1.8,2470.951,13.29,0.044,275.2
2022-10-02T06:13:03,42.805,6.029,-0.048,0.007,-0.029,101.0,101.0,100.0,13.3,1505.2,323.7,-0.8,1.8,2470.934,13.29,0.048,278.3
2022-10-02T06:16:03,42.805,6.029,-0.062,0.031,-0.025,102.0,101.0,101.0,13.4,1505.2,317.6,-0.8,1.9,2470.97,13.29,0.069,296.6
2022-10-02T06:19:03,42.805,6.029,-0.036,0.013,-0.033,102.0,101.0,100.0,13.4,1505.2,324.6,-0.8,1.8,2470.95,13.29,0.038,289.9
2022-10-02T06:22:03,42.805,6.029,-0.02,0.017,-0.032,100.0,102.0,100.0,13.4,1505.2,333.7,-0.8,1.8,2470.933,13.29,0.026,310.4
2022-10-02T06:25:03,42.805,6.029,-0.028,0.015,0.0,102.0,101.0,100.0,13.4,1505.2,330.4,-0.8,1.8,2470.989,13.29,0.031,298.2
2022-10-02T06:28:03,42.805,6.029,-0.044,0.013,-0.025,100.0,102.0,100.0,13.4,1505.2,317.6,-0.8,1.8,2470.949,13.29,0.045,286.5
2022-10-02T06:31:03,42.805,6.029,-0.058,0.051,0.006,102.0,102.0,100.0,13.4,1505.2,334.0,-0.8,1.9,2470.955,13.29,0.077,311.3
2022-10-02T06:34:03,42.805,6.029,-0.067,0.033,-0.01,101.0,101.0,100.0,13.4,1505.2,329.7,-0.7,1.8,2470.985,13.29,0.074,296.2
2022-10-02T06:37:03,42.805,6.029,-0.049,0.017,-0.023,101.0,101.0,99.0,13.4,1505.2,332.8,-0.8,1.8,2470.937,13.29,0.051,289.1
2022-10-02T06:40:03,42.805,6.029,-0.044,0.002,-0.038,103.0,101.0,99.0,13.4,1505.2,316.2,-0.8,1.8,2470.942,13.29,0.044,272.6
2022-10-02T06:43:03,42.805,6.029,-0.038,0.045,-0.011,101.0,102.0,100.0,13.4,1505.2,316.2,-0.8,1.8,2470.977,13.29,0.058,319.8
2022-10-02T06:46:03,42.805,6.029,-0.038,0.036,0.033,101.0,103.0,100.0,13.4,1505.2,328.2,-0.8,1.8,2470.974,13.29,0.052,313.5
2022-10-02T06:49:03,42.805,6.029,-0.05,0.036,-0.002,103.0,102.0,100.0,13.3,1505.2,323.5,-0.7,1.8,2471.011,13.29,0.061,305.8
2022-10-02T06:52:03,42.805,6.029,-0.04,0.022,-0.032,101.0,99.0,101.0,13.3,1505.2,320.1,-0.8,1.8,2470.955,13.29,0.045,298.8
2022-10-02T06:55:03,42.805,6.029,-0.029,0.024,-0.021,102.0,101.0,100.0,13.3,1505.2,327.1,-0.7,1.8,2470.952,13.29,0.037,309.6
2022-10-02T06:58:03,42.805,6.029,-0.049,0.023,-0.009,101.0,102.0,99.0,13.4,1505.2,323.8,-0.8,1.8,2470.969,13.29,0.054,295.1
2022-10-02T07:04:03,42.805,6.029,-0.044,0.01,-0.005,101.0,102.0,100.0,13.3,1505.2,331.9,-0.8,1.8,2470.989,13.28,0.045,282.8
2022-10-02T07:07:03,42.805,6.029,-0.049,0.035,0.016,101.0,102.0,100.0,13.4,1505.2,322.2,-0.8,1.8,2471.042,13.28,0.06,305.5
2022-10-02T07:10:03,42.805,6.029,-0.035,0.025,-0.042,101.0,101.0,100.0,13.4,1505.2,320.1,-0.7,1.8,2471.035,13.28,0.043,305.5
2022-10-02T07:13:03,42.805,6.029,-0.038,0.025,-0.002,101.0,102.0,100.0,13.3,1505.2,319.0,-0.7,1.8,2471.027,13.28,0.045,303.3
2022-10-02T07:16:03,42.805,6.029,-0.041,0.019,0.002,102.0,101.0,100.0,13.3,1505.2,329.5,-0.8,1.8,2471.051,13.29,0.045,294.9
2022-10-02T07:19:03,42.805,6.029,-0.042,0.0,-0.033,101.0,101.0,100.0,13.4,1505.2,317.9,-0.8,1.8,2471.013,13.29,0.042,270.0
2022-10-02T07:22:03,42.805,6.029,-0.03,0.018,0.0,101.0,101.0,100.0,13.4,1505.2,324.1,-0.8,1.8,2471.02,13.29,0.034,301.0
2022-10-02T07:25:03,42.805,6.029,-0.04,0.018,-0.016,101.0,100.0,100.0,13.4,1505.2,329.9,-0.8,1.9,2471.006,13.29,0.043,294.2
2022-10-02T07:28:03,42.805,6.029,-0.023,-0.005,0.003,101.0,101.0,100.0,13.4,1505.2,329.8,-0.8,1.9,2470.971,13.29,0.023,257.7
2022-10-02T07:31:03,42.805,6.029,-0.036,0.012,0.006,101.0,102.0,100.0,13.4,1505.2,325.0,-0.8,1.8,2470.992,13.29,0.037,288.4
2022-10-02T07:34:03,42.805,6.029,-0.052,0.013,-0.008,101.0,101.0,100.0,13.3,1505.2,322.7,-0.8,1.8,2470.992,13.29,0.053,284.0
2022-10-02T07:37:03,42.805,6.029,-0.018,0.024,0.005,101.0,103.0,100.0,13.4,1505.2,327.6,-0.8,1.8,2471.02,13.29,0.03,323.1
2022-10-02T07:40:03,42.805,6.029,-0.022,0.009,-0.011,101.0,101.0,100.0,13.4,1505.2,325.9,-0.8,1.8,2471.033,13.29,0.023,292.2
2022-10-02T07:43:03,42.805,6.029,-0.04,0.035,-0.022,101.0,101.0,100.0,13.3,1505.2,327.7,-0.7,1.8,2471.004,13.29,0.053,311.2
2022-10-02T07:46:03,42.805,6.029,-0.078,0.047,0.001,101.0,102.0,100.0,13.4,1505.2,328.2,-0.8,1.9,2470.994,13.29,0.091,301.1
2022-10-02T07:49:03,42.805,6.029,-0.056,0.022,-0.017,101.0,101.0,99.0,13.3,1505.2,327.6,-0.8,1.8,2471.016,13.29,0.06,291.4
2022-10-02T07:52:03,42.805,6.029,-0.052,0.032,0.003,101.0,102.0,99.0,13.4,1505.2,328.7,-0.7,1.8,2471.016,13.29,0.061,301.6
2022-10-02T07:55:03,42.805,6.029,-0.047,0.027,-0.004,101.0,102.0,100.0,13.4,1505.2,326.4,-0.8,1.8,2471.025,13.29,0.054,299.9
2022-10-02T07:58:03,42.805,6.029,-0.046,0.035,0.004,102.0,101.0,100.0,13.4,1505.2,324.7,-0.7,1.8,2471.037,13.29,0.057,307.3
2022-10-02T08:04:03,42.805,6.029,-0.026,0.015,0.017,101.0,102.0,100.0,13.4,1505.2,323.8,-0.7,1.8,2471.056,13.28,0.03,300.0
2022-10-02T08:07:03,42.805,6.029,-0.019,0.001,-0.008,101.0,102.0,100.0,13.3,1505.2,318.6,-0.8,1.8,2471.077,13.28,0.019,273.0
2022-10-02T08:10:03,42.805,6.029,-0.041,0.021,-0.01,102.0,101.0,100.0,13.3,1505.2,330.2,-0.8,1.8,2471.073,13.28,0.046,297.1
2022-10-02T08:13:03,42.805,6.029,-0.015,0.032,0.021,101.0,102.0,100.0,13.4,1505.2,327.3,-0.8,1.8,2471.08,13.29,0.035,334.9
2022-10-02T08:16:03,42.805,6.029,-0.06,0.051,0.051,101.0,101.0,100.0,13.4,1505.2,319.4,-0.7,1.8,2471.072,13.29,0.078,310.4
2022-10-02T08:19:03,42.805,6.029,-0.026,0.022,-0.007,100.0,102.0,100.0,13.4,1505.2,323.2,-0.7,1.8,2471.091,13.29,0.034,310.2
2022-10-02T08:22:03,42.805,6.029,-0.053,0.03,-0.031,100.0,101.0,100.0,13.3,1505.2,330.0,-0.8,1.8,2471.046,13.29,0.06,299.5
2022-10-02T08:25:03,42.805,6.029,-0.052,0.016,-0.016,101.0,102.0,101.0,13.3,1505.2,328.5,-0.8,1.8,2471.026,13.29,0.054,287.1
2022-10-02T08:28:03,42.805,6.029,-0.064,0.024,-0.004,100.0,101.0,100.0,13.4,1505.2,321.1,-0.8,1.8,2471.068,13.29,0.068,290.6
2022-10-02T08:31:03,42.805,6.029,-0.041,0.047,-0.003,102.0,100.0,100.0,13.3,1505.2,329.1,-0.7,1.8,2471.072,13.29,0.062,318.9
2022-10-02T08:34:03,42.805,6.029,-0.037,0.014,-0.004,101.0,101.0,100.0,13.4,1505.2,325.5,-0.7,1.9,2471.047,13.29,0.039,290.7
2022-10-02T08:37:03,42.805,6.029,-0.037,0.005,-0.021,101.0,101.0,100.0,13.4,1505.2,320.7,-0.8,1.8,2471.069,13.29,0.037,277.7
2022-10-02T08:40:03,42.805,6.029,-0.034,0.013,-0.008,102.0,101.0,100.0,13.3,1505.2,319.1,-0.8,1.8,2471.056,13.29,0.036,290.9
2022-10-02T08:43:03,42.805,6.029,-0.019,0.032,-0.016,101.0,101.0,101.0,13.3,1505.2,318.4,-0.8,1.8,2471.089,13.29,0.037,329.3
2022-10-02T08:46:03,42.805,6.029,-0.048,0.025,0.002,102.0,102.0,99.0,13.4,1505.2,324.0,-0.8,1.8,2471.087,13.29,0.054,297.5
2022-10-02T08:49:03,42.805,6.029,-0.003,0.002,-0.016,101.0,102.0,100.0,13.3,1505.2,321.6,-0.8,1.9,2471.016,13.29,0.003,303.7
2022-10-02T08:52:03,42.805,6.029,-0.044,0.008,-0.041,101.0,102.0,100.0,13.3,1505.2,331.3,-0.7,1.8,2471.064,13.29,0.044,280.3
2022-10-02T08:55:03,42.805,6.029,-0.047,0.042,0.019,101.0,104.0,100.0,13.3,1505.2,329.3,-0.7,1.8,2471.066,13.29,0.063,311.8
2022-10-02T08:58:03,42.805,6.029,-0.058,0.019,-0.009,101.0,101.0,100.0,13.4,1505.2,321.0,-0.8,1.8,2471.075,13.29,0.061,288.1
2022-10-02T09:04:03,42.805,6.029,-0.038,0.043,-0.021,100.0,103.0,100.0,13.4,1505.2,323.7,-0.7,1.8,2471.101,13.28,0.057,318.5
2022-10-02T09:07:03,42.805,6.029,-0.048,0.029,-0.009,101.0,101.0,100.0,13.4,1505.2,324.1,-0.8,1.8,2471.064,13.28,0.056,301.1
2022-10-02T09:10:03,42.805,6.029,-0.057,0.022,0.026,102.0,101.0,99.0,13.3,1505.2,326.5,-0.8,1.8,2471.128,13.28,0.061,291.1
2022-10-02T09:13:03,42.805,6.029,-0.037,0.038,-0.003,100.0,102.0,100.0,13.3,1505.2,329.0,-0.8,1.8,2471.082,13.28,0.053,315.8
2022-10-02T09:16:03,42.805,6.029,-0.058,0.022,-0.013,102.0,101.0,101.0,13.3,1505.2,332.8,-0.8,1.8,2471.09,13.29,0.062,290.8
2022-10-02T09:19:03,42.805,6.029,-0.059,0.019,-0.003,101.0,102.0,100.0,13.4,1505.2,326.4,-0.8,1.8,2471.054,13.29,0.061,287.8
2022-10-02T09:22:03,42.805,6.029,-0.032,0.003,-0.029,101.0,101.0,100.0,13.4,1505.2,327.3,-0.7,1.8,2471.085,13.29,0.032,275.4
2022-10-02T09:25:03,42.805,6.029,-0.043,0.016,-0.015,101.0,102.0,100.0,13.4,1505.2,331.1,-0.8,1.9,2471.094,13.29,0.045,290.4
2022-10-02T09:28:03,42.805,6.029,-0.037,0.023,0.0,102.0,101.0,100.0,13.4,1505.2,327.6,-0.7,1.8,2471.103,13.29,0.043,301.9
2022-10-02T09:31:03,42.805,6.029,-0.05,0.021,-0.013,101.0,101.0,100.0,13.3,1505.2,325.1,-0.7,1.8,2471.073,13.29,0.054,292.8
2022-10-02T09:34:03,42.805,6.029,-0.023,0.029,0.012,101.0,103.0,99.0,13.4,1505.2,323.6,-0.8,1.8,2471.11,13.29,0.037,321.6
2022-10-02T09:37:03,42.805,6.029,-0.026,0.019,0.017,101.0,102.0,100.0,13.3,1505.2,325.0,-0.8,1.8,2471.101,13.29,0.032,306.2
2022-10-02T09:40:03,42.805,6.029,-0.034,0.01,-0.018,102.0,102.0,100.0,13.4,1505.2,323.1,-0.7,1.9,2471.071,13.29,0.035,286.4
2022-10-02T09:43:03,42.805,6.029,-0.054,0.025,-0.014,101.0,101.0,101.0,13.3,1505.2,321.4,-0.7,1.9,2471.104,13.29,0.059,294.8
2022-10-02T09:46:03,42.805,6.029,-0.043,0.02,-0.018,100.0,103.0,101.0,13.3,1505.2,324.1,-0.8,1.9,2471.106,13.29,0.047,294.9
2022-10-02T09:49:03,42.805,6.029,-0.063,0.046,0.023,101.0,102.0,100.0,13.4,1505.2,322.3,-0.8,1.8,2471.08,13.29,0.078,306.1
2022-10-02T09:52:03,42.805,6.029,-0.053,0.027,0.017,102.0,102.0,100.0,13.4,1505.2,327.6,-0.8,1.8,2471.113,13.29,0.059,297.0